Year,Month,Day,Hour,Minute,Value (Times are PST for temperature in C)
2009,01,30,00,00,3.80
2009,01,30,00,01,3.80
2009,01,30,00,02,3.80
2009,01,30,00,03,3.80
2009,01,30,00,04,3.90
2009,01,30,00,05,3.90
2009,01,30,00,06,3.90
2009,01,30,00,07,3.90
2009,01,30,00,08,3.90
2009,01,30,00,09,3.90
2009,01,30,00,10,3.90
2009,01,30,00,11,3.90
2009,01,30,00,12,3.90
2009,01,30,00,13,3.90
2009,01,30,00,14,3.90
2009,01,30,00,15,3.90
2009,01,30,00,16,3.90
2009,01,30,00,17,3.90
2009,01,30,00,18,3.90
2009,01,30,00,19,3.90
2009,01,30,00,20,3.90
2009,01,30,00,21,3.90
2009,01,30,00,22,3.90
2009,01,30,00,23,3.90
2009,01,30,00,24,3.90
2009,01,30,00,25,3.90
2009,01,30,00,26,3.90
2009,01,30,00,27,3.90
2009,01,30,00,28,3.90
2009,01,30,00,29,3.90
2009,01,30,00,30,3.90
2009,01,30,00,31,3.90
2009,01,30,00,32,3.90
2009,01,30,00,33,3.90
2009,01,30,00,34,3.80
2009,01,30,00,35,3.80
2009,01,30,00,36,3.90
2009,01,30,00,37,3.90
2009,01,30,00,38,3.90
2009,01,30,00,39,3.90
2009,01,30,00,40,3.80
2009,01,30,00,41,3.80
2009,01,30,00,42,3.80
2009,01,30,00,43,3.80
2009,01,30,00,44,3.80
2009,01,30,00,45,3.80
2009,01,30,00,46,3.80
2009,01,30,00,47,3.80
2009,01,30,00,48,3.80
2009,01,30,00,49,3.80
2009,01,30,00,50,3.80
2009,01,30,00,51,3.80
2009,01,30,00,52,3.80
2009,01,30,00,53,3.80
2009,01,30,00,54,3.80
2009,01,30,00,55,3.80
2009,01,30,00,56,3.80
2009,01,30,00,57,3.80
2009,01,30,00,58,3.80
2009,01,30,00,59,3.80
2009,01,30,01,00,3.80
2009,01,30,01,01,3.80
2009,01,30,01,02,3.80
2009,01,30,01,03,3.80
2009,01,30,01,04,3.80
2009,01,30,01,05,3.80
2009,01,30,01,06,3.80
2009,01,30,01,07,3.80
2009,01,30,01,08,3.80
2009,01,30,01,09,3.80
2009,01,30,01,10,3.80
2009,01,30,01,11,3.80
2009,01,30,01,12,3.80
2009,01,30,01,13,3.80
2009,01,30,01,14,3.80
2009,01,30,01,15,3.80
2009,01,30,01,16,3.80
2009,01,30,01,17,3.80
2009,01,30,01,18,3.80
2009,01,30,01,19,3.70
2009,01,30,01,20,3.70
2009,01,30,01,21,3.70
2009,01,30,01,22,3.70
2009,01,30,01,23,3.60
2009,01,30,01,24,3.60
2009,01,30,01,25,3.60
2009,01,30,01,26,3.60
2009,01,30,01,27,3.60
2009,01,30,01,28,3.60
2009,01,30,01,29,3.60
2009,01,30,01,30,3.60
2009,01,30,01,31,3.60
2009,01,30,01,32,3.60
2009,01,30,01,33,3.60
2009,01,30,01,34,3.60
2009,01,30,01,35,3.60
2009,01,30,01,36,3.60
2009,01,30,01,37,3.60
2009,01,30,01,38,3.60
2009,01,30,01,39,3.60
2009,01,30,01,40,3.60
2009,01,30,01,41,3.60
2009,01,30,01,42,3.60
2009,01,30,01,43,3.60
2009,01,30,01,44,3.60
2009,01,30,01,45,3.60
2009,01,30,01,46,3.60
2009,01,30,01,47,3.60
2009,01,30,01,48,3.60
2009,01,30,01,49,3.60
2009,01,30,01,50,3.60
2009,01,30,01,51,3.60
2009,01,30,01,52,3.60
2009,01,30,01,53,3.60
2009,01,30,01,54,3.60
2009,01,30,01,55,3.60
2009,01,30,01,56,3.60
2009,01,30,01,57,3.60
2009,01,30,01,58,3.60
2009,01,30,01,59,3.60
2009,01,30,02,00,3.60
2009,01,30,02,01,3.60
2009,01,30,02,02,3.60
2009,01,30,02,03,3.60
2009,01,30,02,04,3.60
2009,01,30,02,05,3.60
2009,01,30,02,06,3.60
2009,01,30,02,07,3.60
2009,01,30,02,08,3.60
2009,01,30,02,09,3.60
2009,01,30,02,10,3.60
2009,01,30,02,11,3.60
2009,01,30,02,12,3.60
2009,01,30,02,13,3.60
2009,01,30,02,14,3.60
2009,01,30,02,15,3.60
2009,01,30,02,16,3.60
2009,01,30,02,17,3.60
2009,01,30,02,18,3.60
2009,01,30,02,19,3.60
2009,01,30,02,20,3.60
2009,01,30,02,21,3.60
2009,01,30,02,22,3.60
2009,01,30,02,23,3.60
2009,01,30,02,24,3.60
2009,01,30,02,25,3.60
2009,01,30,02,26,3.60
2009,01,30,02,27,3.60
2009,01,30,02,28,3.60
2009,01,30,02,29,3.60
2009,01,30,02,30,3.70
2009,01,30,02,31,3.70
2009,01,30,02,32,3.70
2009,01,30,02,33,3.70
2009,01,30,02,34,3.70
2009,01,30,02,35,3.70
2009,01,30,02,36,3.70
2009,01,30,02,37,3.70
2009,01,30,02,38,3.70
2009,01,30,02,39,3.70
2009,01,30,02,40,3.70
2009,01,30,02,41,3.70
2009,01,30,02,42,3.70
2009,01,30,02,43,3.70
2009,01,30,02,44,3.60
2009,01,30,02,45,3.60
2009,01,30,02,46,3.60
2009,01,30,02,47,3.60
2009,01,30,02,48,3.60
2009,01,30,02,49,3.60
2009,01,30,02,50,3.60
2009,01,30,02,51,3.60
2009,01,30,02,52,3.60
2009,01,30,02,53,3.60
2009,01,30,02,54,3.60
2009,01,30,02,55,3.60
2009,01,30,02,56,3.60
2009,01,30,02,57,3.60
2009,01,30,02,58,3.60
2009,01,30,02,59,3.60
2009,01,30,03,00,3.70
2009,01,30,03,01,3.70
2009,01,30,03,02,3.70
2009,01,30,03,03,3.70
2009,01,30,03,04,3.60
2009,01,30,03,05,3.60
2009,01,30,03,06,3.60
2009,01,30,03,07,3.60
2009,01,30,03,08,3.60
2009,01,30,03,09,3.50
2009,01,30,03,10,3.50
2009,01,30,03,11,3.50
2009,01,30,03,12,3.50
2009,01,30,03,13,3.50
2009,01,30,03,14,3.50
2009,01,30,03,15,3.50
2009,01,30,03,16,3.50
2009,01,30,03,17,3.50
2009,01,30,03,18,3.50
2009,01,30,03,19,3.50
2009,01,30,03,20,3.60
2009,01,30,03,21,3.60
2009,01,30,03,22,3.60
2009,01,30,03,23,3.60
2009,01,30,03,24,3.60
2009,01,30,03,25,3.60
2009,01,30,03,26,3.60
2009,01,30,03,27,3.60
2009,01,30,03,28,3.60
2009,01,30,03,29,3.60
2009,01,30,03,30,3.60
2009,01,30,03,31,3.60
2009,01,30,03,32,3.60
2009,01,30,03,33,3.60
2009,01,30,03,34,3.60
2009,01,30,03,35,3.60
2009,01,30,03,36,3.60
2009,01,30,03,37,3.60
2009,01,30,03,38,3.60
2009,01,30,03,39,3.60
2009,01,30,03,40,3.60
2009,01,30,03,41,3.60
2009,01,30,03,42,3.60
2009,01,30,03,43,3.70
2009,01,30,03,44,3.70
2009,01,30,03,45,3.70
2009,01,30,03,46,3.70
2009,01,30,03,47,3.70
2009,01,30,03,48,3.70
2009,01,30,03,49,3.70
2009,01,30,03,50,3.70
2009,01,30,03,51,3.70
2009,01,30,03,52,3.70
2009,01,30,03,53,3.70
2009,01,30,03,54,3.70
2009,01,30,03,55,3.70
2009,01,30,03,56,3.70
2009,01,30,03,57,3.70
2009,01,30,03,58,3.70
2009,01,30,03,59,3.70
2009,01,30,04,00,3.70
2009,01,30,04,01,3.70
2009,01,30,04,02,3.60
2009,01,30,04,03,3.60
2009,01,30,04,04,3.60
2009,01,30,04,05,3.60
2009,01,30,04,06,3.60
2009,01,30,04,07,3.60
2009,01,30,04,08,3.60
2009,01,30,04,09,3.60
2009,01,30,04,10,3.60
2009,01,30,04,11,3.60
2009,01,30,04,12,3.60
2009,01,30,04,13,3.60
2009,01,30,04,14,3.60
2009,01,30,04,15,3.60
2009,01,30,04,16,3.60
2009,01,30,04,17,3.70
2009,01,30,04,18,3.70
2009,01,30,04,19,3.70
2009,01,30,04,20,3.70
2009,01,30,04,21,3.70
2009,01,30,04,22,3.70
2009,01,30,04,23,3.70
2009,01,30,04,24,3.70
2009,01,30,04,25,3.70
2009,01,30,04,26,3.70
2009,01,30,04,27,3.70
2009,01,30,04,28,3.70
2009,01,30,04,29,3.70
2009,01,30,04,30,3.80
2009,01,30,04,31,3.80
2009,01,30,04,32,3.80
2009,01,30,04,33,3.80
2009,01,30,04,34,3.80
2009,01,30,04,35,3.80
2009,01,30,04,36,3.80
2009,01,30,04,37,3.80
2009,01,30,04,38,3.80
2009,01,30,04,39,3.80
2009,01,30,04,40,3.80
2009,01,30,04,41,3.80
2009,01,30,04,42,3.90
2009,01,30,04,43,3.80
2009,01,30,04,44,3.90
2009,01,30,04,45,3.80
2009,01,30,04,46,3.80
2009,01,30,04,47,3.80
2009,01,30,04,48,3.80
2009,01,30,04,49,3.80
2009,01,30,04,50,3.80
2009,01,30,04,51,3.80
2009,01,30,04,52,3.80
2009,01,30,04,53,3.80
2009,01,30,04,54,3.80
2009,01,30,04,55,3.80
2009,01,30,04,56,3.80
2009,01,30,04,57,3.80
2009,01,30,04,58,3.80
2009,01,30,04,59,3.80
2009,01,30,05,00,3.80
2009,01,30,05,01,3.80
2009,01,30,05,02,3.90
2009,01,30,05,03,3.80
2009,01,30,05,04,3.80
2009,01,30,05,05,3.80
2009,01,30,05,06,3.80
2009,01,30,05,07,3.80
2009,01,30,05,08,3.80
2009,01,30,05,09,3.80
2009,01,30,05,10,3.80
2009,01,30,05,11,3.80
2009,01,30,05,12,3.90
2009,01,30,05,13,3.80
2009,01,30,05,14,3.80
2009,01,30,05,15,3.90
2009,01,30,05,16,3.90
2009,01,30,05,17,3.90
2009,01,30,05,18,3.90
2009,01,30,05,19,3.90
2009,01,30,05,20,3.90
2009,01,30,05,21,3.90
2009,01,30,05,22,3.90
2009,01,30,05,23,3.90
2009,01,30,05,24,3.90
2009,01,30,05,25,3.90
2009,01,30,05,26,3.90
2009,01,30,05,27,3.90
2009,01,30,05,28,3.90
2009,01,30,05,29,3.90
2009,01,30,05,30,3.90
2009,01,30,05,31,3.90
2009,01,30,05,32,3.80
2009,01,30,05,33,3.80
2009,01,30,05,34,3.80
2009,01,30,05,35,3.80
2009,01,30,05,36,3.80
2009,01,30,05,37,3.80
2009,01,30,05,38,3.80
2009,01,30,05,39,3.80
2009,01,30,05,40,3.80
2009,01,30,05,41,3.80
2009,01,30,05,42,3.70
2009,01,30,05,43,3.70
2009,01,30,05,44,3.70
2009,01,30,05,45,3.70
2009,01,30,05,46,3.70
2009,01,30,05,47,3.70
2009,01,30,05,48,3.70
2009,01,30,05,49,3.70
2009,01,30,05,50,3.70
2009,01,30,05,51,3.70
2009,01,30,05,52,3.70
2009,01,30,05,53,3.70
2009,01,30,05,54,3.70
2009,01,30,05,55,3.70
2009,01,30,05,56,3.70
2009,01,30,05,57,3.70
2009,01,30,05,58,3.70
2009,01,30,05,59,3.70
2009,01,30,06,00,3.70
2009,01,30,06,01,3.70
2009,01,30,06,02,3.70
2009,01,30,06,03,3.70
2009,01,30,06,04,3.70
2009,01,30,06,05,3.70
2009,01,30,06,06,3.70
2009,01,30,06,07,3.70
2009,01,30,06,08,3.70
2009,01,30,06,09,3.70
2009,01,30,06,10,3.70
2009,01,30,06,11,3.70
2009,01,30,06,12,3.70
2009,01,30,06,13,3.70
2009,01,30,06,14,3.70
2009,01,30,06,15,3.70
2009,01,30,06,16,3.70
2009,01,30,06,17,3.70
2009,01,30,06,18,3.70
2009,01,30,06,19,3.70
2009,01,30,06,20,3.70
2009,01,30,06,21,3.70
2009,01,30,06,22,3.70
2009,01,30,06,23,3.70
2009,01,30,06,24,3.70
2009,01,30,06,25,3.70
2009,01,30,06,26,3.70
2009,01,30,06,27,3.60
2009,01,30,06,28,3.60
2009,01,30,06,29,3.60
2009,01,30,06,30,3.60
2009,01,30,06,31,3.60
2009,01,30,06,32,3.60
2009,01,30,06,33,3.60
2009,01,30,06,34,3.60
2009,01,30,06,35,3.60
2009,01,30,06,36,3.60
2009,01,30,06,37,3.60
2009,01,30,06,38,3.60
2009,01,30,06,39,3.60
2009,01,30,06,40,3.60
2009,01,30,06,41,3.60
2009,01,30,06,42,3.60
2009,01,30,06,43,3.60
2009,01,30,06,44,3.60
2009,01,30,06,45,3.60
2009,01,30,06,46,3.60
2009,01,30,06,47,3.60
2009,01,30,06,48,3.60
2009,01,30,06,49,3.60
2009,01,30,06,50,3.60
2009,01,30,06,51,3.60
2009,01,30,06,52,3.60
2009,01,30,06,53,3.60
2009,01,30,06,54,3.60
2009,01,30,06,55,3.60
2009,01,30,06,56,3.60
2009,01,30,06,57,3.60
2009,01,30,06,58,3.60
2009,01,30,06,59,3.60
2009,01,30,07,00,3.60
2009,01,30,07,01,3.60
2009,01,30,07,02,3.60
2009,01,30,07,03,3.60
2009,01,30,07,04,3.60
2009,01,30,07,05,3.60
2009,01,30,07,06,3.60
2009,01,30,07,07,3.50
2009,01,30,07,08,3.60
2009,01,30,07,09,3.60
2009,01,30,07,10,3.60
2009,01,30,07,11,3.60
2009,01,30,07,12,3.60
2009,01,30,07,13,3.60
2009,01,30,07,14,3.60
2009,01,30,07,15,3.60
2009,01,30,07,16,3.70
2009,01,30,07,17,3.70
2009,01,30,07,18,3.70
2009,01,30,07,19,3.70
2009,01,30,07,20,3.70
2009,01,30,07,21,3.60
2009,01,30,07,22,3.60
2009,01,30,07,23,3.60
2009,01,30,07,24,3.60
2009,01,30,07,25,3.60
2009,01,30,07,26,3.60
2009,01,30,07,27,3.60
2009,01,30,07,28,3.60
2009,01,30,07,29,3.60
2009,01,30,07,30,3.60
2009,01,30,07,31,3.60
2009,01,30,07,32,3.60
2009,01,30,07,33,3.60
2009,01,30,07,34,3.60
2009,01,30,07,35,3.60
2009,01,30,07,36,3.60
2009,01,30,07,37,3.70
2009,01,30,07,38,3.70
2009,01,30,07,39,3.70
2009,01,30,07,40,3.70
2009,01,30,07,41,3.70
2009,01,30,07,42,3.70
2009,01,30,07,43,3.70
2009,01,30,07,44,3.70
2009,01,30,07,45,3.70
2009,01,30,07,46,3.70
2009,01,30,07,47,3.70
2009,01,30,07,48,3.70
2009,01,30,07,49,3.70
2009,01,30,07,50,3.70
2009,01,30,07,51,3.70
2009,01,30,07,52,3.70
2009,01,30,07,53,3.70
2009,01,30,07,54,3.70
2009,01,30,07,55,3.70
2009,01,30,07,56,3.70
2009,01,30,07,57,3.70
2009,01,30,07,58,3.70
2009,01,30,07,59,3.70
2009,01,30,08,00,3.70
2009,01,30,08,01,3.70
2009,01,30,08,02,3.70
2009,01,30,08,03,3.70
2009,01,30,08,04,3.70
2009,01,30,08,05,3.70
2009,01,30,08,06,3.70
2009,01,30,08,07,3.70
2009,01,30,08,08,3.60
2009,01,30,08,09,3.60
2009,01,30,08,10,3.60
2009,01,30,08,11,3.60
2009,01,30,08,12,3.60
2009,01,30,08,13,3.60
2009,01,30,08,14,3.70
2009,01,30,08,15,3.70
2009,01,30,08,16,3.70
2009,01,30,08,17,3.70
2009,01,30,08,18,3.70
2009,01,30,08,19,3.70
2009,01,30,08,20,3.70
2009,01,30,08,21,3.70
2009,01,30,08,22,3.70
2009,01,30,08,23,3.70
2009,01,30,08,24,3.70
2009,01,30,08,25,3.70
2009,01,30,08,26,3.70
2009,01,30,08,27,3.70
2009,01,30,08,28,3.80
2009,01,30,08,29,3.80
2009,01,30,08,30,3.80
2009,01,30,08,31,3.80
2009,01,30,08,32,3.80
2009,01,30,08,33,3.80
2009,01,30,08,34,3.80
2009,01,30,08,35,3.70
2009,01,30,08,36,3.70
2009,01,30,08,37,3.70
2009,01,30,08,38,3.70
2009,01,30,08,39,3.70
2009,01,30,08,40,3.70
2009,01,30,08,41,3.70
2009,01,30,08,42,3.70
2009,01,30,08,43,3.70
2009,01,30,08,44,3.70
2009,01,30,08,45,3.70
2009,01,30,08,46,3.70
2009,01,30,08,47,3.70
2009,01,30,08,48,3.70
2009,01,30,08,49,3.70
2009,01,30,08,50,3.70
2009,01,30,08,51,3.70
2009,01,30,08,52,3.70
2009,01,30,08,53,3.70
2009,01,30,08,54,3.70
2009,01,30,08,55,3.70
2009,01,30,08,56,3.70
2009,01,30,08,57,3.70
2009,01,30,08,58,3.70
2009,01,30,08,59,3.70
2009,01,30,09,00,3.70
2009,01,30,09,01,3.70
2009,01,30,09,02,3.70
2009,01,30,09,03,3.70
2009,01,30,09,04,3.70
2009,01,30,09,05,3.70
2009,01,30,09,06,3.80
2009,01,30,09,07,3.80
2009,01,30,09,08,3.70
2009,01,30,09,09,3.70
2009,01,30,09,10,3.70
2009,01,30,09,11,3.70
2009,01,30,09,12,3.70
2009,01,30,09,13,3.70
2009,01,30,09,14,3.70
2009,01,30,09,15,3.70
2009,01,30,09,16,3.70
2009,01,30,09,17,3.70
2009,01,30,09,18,3.70
2009,01,30,09,19,3.70
2009,01,30,09,20,3.70
2009,01,30,09,21,3.70
2009,01,30,09,22,3.70
2009,01,30,09,23,3.60
2009,01,30,09,24,3.70
2009,01,30,09,25,3.70
2009,01,30,09,26,3.70
2009,01,30,09,27,3.70
2009,01,30,09,28,3.70
2009,01,30,09,29,3.70
2009,01,30,09,30,3.70
2009,01,30,09,31,3.70
2009,01,30,09,32,3.70
2009,01,30,09,33,3.70
2009,01,30,09,34,3.70
2009,01,30,09,35,3.70
2009,01,30,09,36,3.70
2009,01,30,09,37,3.70
2009,01,30,09,38,3.70
2009,01,30,09,39,3.70
2009,01,30,09,40,3.70
2009,01,30,09,41,3.70
2009,01,30,09,42,3.70
2009,01,30,09,43,3.70
2009,01,30,09,44,3.70
2009,01,30,09,45,3.70
2009,01,30,09,46,3.70
2009,01,30,09,47,3.70
2009,01,30,09,48,3.70
2009,01,30,09,49,3.70
2009,01,30,09,50,3.70
2009,01,30,09,51,3.70
2009,01,30,09,52,3.70
2009,01,30,09,53,3.70
2009,01,30,09,54,3.70
2009,01,30,09,55,3.70
2009,01,30,09,56,3.70
2009,01,30,09,57,3.70
2009,01,30,09,58,3.70
2009,01,30,09,59,3.70
2009,01,30,10,00,3.70
2009,01,30,10,01,3.70
2009,01,30,10,02,3.70
2009,01,30,10,03,3.70
2009,01,30,10,04,3.70
2009,01,30,10,05,3.70
2009,01,30,10,06,3.70
2009,01,30,10,07,3.70
2009,01,30,10,08,3.70
2009,01,30,10,09,3.70
2009,01,30,10,10,3.70
2009,01,30,10,11,3.70
2009,01,30,10,12,3.70
2009,01,30,10,13,3.70
2009,01,30,10,14,3.70
2009,01,30,10,15,3.70
2009,01,30,10,16,3.70
2009,01,30,10,17,3.70
2009,01,30,10,18,3.70
2009,01,30,10,19,3.70
2009,01,30,10,20,3.70
2009,01,30,10,21,3.70
2009,01,30,10,22,3.70
2009,01,30,10,23,3.70
2009,01,30,10,24,3.70
2009,01,30,10,25,3.70
2009,01,30,10,26,3.70
2009,01,30,10,27,3.70
2009,01,30,10,28,3.70
2009,01,30,10,29,3.70
2009,01,30,10,30,3.70
2009,01,30,10,31,3.70
2009,01,30,10,32,3.70
2009,01,30,10,33,3.70
2009,01,30,10,34,3.70
2009,01,30,10,35,3.70
2009,01,30,10,36,3.70
2009,01,30,10,37,3.80
2009,01,30,10,38,3.80
2009,01,30,10,39,3.80
2009,01,30,10,40,3.80
2009,01,30,10,41,3.80
2009,01,30,10,42,3.80
2009,01,30,10,43,3.80
2009,01,30,10,44,3.80
2009,01,30,10,45,3.80
2009,01,30,10,46,3.80
2009,01,30,10,47,3.80
2009,01,30,10,48,3.80
2009,01,30,10,49,3.80
2009,01,30,10,50,3.80
2009,01,30,10,51,3.80
2009,01,30,10,52,3.80
2009,01,30,10,53,3.80
2009,01,30,10,54,3.80
2009,01,30,10,55,3.80
2009,01,30,10,56,3.80
2009,01,30,10,57,3.80
2009,01,30,10,58,3.80
2009,01,30,10,59,3.80
2009,01,30,11,00,3.80
2009,01,30,11,01,3.90
2009,01,30,11,02,3.90
2009,01,30,11,03,3.90
2009,01,30,11,04,3.90
2009,01,30,11,05,3.90
2009,01,30,11,06,3.90
2009,01,30,11,07,3.90
2009,01,30,11,08,3.90
2009,01,30,11,09,3.90
2009,01,30,11,10,3.90
2009,01,30,11,11,3.90
2009,01,30,11,12,3.90
2009,01,30,11,13,3.90
2009,01,30,11,14,3.90
2009,01,30,11,15,3.90
2009,01,30,11,16,3.90
2009,01,30,11,17,4.00
2009,01,30,11,18,4.00
2009,01,30,11,19,4.00
2009,01,30,11,20,4.00
2009,01,30,11,21,4.00
2009,01,30,11,22,4.00
2009,01,30,11,23,4.00
2009,01,30,11,24,4.00
2009,01,30,11,25,4.10
2009,01,30,11,26,4.10
2009,01,30,11,27,4.10
2009,01,30,11,28,4.10
2009,01,30,11,29,4.10
2009,01,30,11,30,4.10
2009,01,30,11,31,4.10
2009,01,30,11,32,4.10
2009,01,30,11,33,4.10
2009,01,30,11,34,4.20
2009,01,30,11,35,4.20
2009,01,30,11,36,4.20
2009,01,30,11,37,4.20
2009,01,30,11,38,4.20
2009,01,30,11,39,4.20
2009,01,30,11,40,4.20
2009,01,30,11,41,4.30
2009,01,30,11,42,4.30
2009,01,30,11,43,4.30
2009,01,30,11,44,4.40
2009,01,30,11,45,4.40
2009,01,30,11,46,4.40
2009,01,30,11,47,4.40
2009,01,30,11,48,4.40
2009,01,30,11,49,4.40
2009,01,30,11,50,4.40
2009,01,30,11,51,4.40
2009,01,30,11,52,4.40
2009,01,30,11,53,4.40
2009,01,30,11,54,4.50
2009,01,30,11,55,4.50
2009,01,30,11,56,4.60
2009,01,30,11,57,4.60
2009,01,30,11,58,4.60
2009,01,30,11,59,4.60
2009,01,30,12,00,4.60
2009,01,30,12,01,4.60
2009,01,30,12,02,4.70
2009,01,30,12,03,4.70
2009,01,30,12,04,4.70
2009,01,30,12,05,4.70
2009,01,30,12,06,4.70
2009,01,30,12,07,4.70
2009,01,30,12,08,4.70
2009,01,30,12,09,4.70
2009,01,30,12,10,4.70
2009,01,30,12,11,4.70
2009,01,30,12,12,4.70
2009,01,30,12,13,4.70
2009,01,30,12,14,4.70
2009,01,30,12,15,4.70
2009,01,30,12,16,4.70
2009,01,30,12,17,4.70
2009,01,30,12,18,4.70
2009,01,30,12,19,4.70
2009,01,30,12,20,4.80
2009,01,30,12,21,4.80
2009,01,30,12,22,4.80
2009,01,30,12,23,4.80
2009,01,30,12,24,4.80
2009,01,30,12,25,4.80
2009,01,30,12,26,4.80
2009,01,30,12,27,4.80
2009,01,30,12,28,4.80
2009,01,30,12,29,4.80
2009,01,30,12,30,4.90
2009,01,30,12,31,4.80
2009,01,30,12,32,4.80
2009,01,30,12,33,4.80
2009,01,30,12,34,4.90
2009,01,30,12,35,4.90
2009,01,30,12,36,4.90
2009,01,30,12,37,4.90
2009,01,30,12,38,4.80
2009,01,30,12,39,4.80
2009,01,30,12,40,4.90
2009,01,30,12,41,4.90
2009,01,30,12,42,4.90
2009,01,30,12,43,4.90
2009,01,30,12,44,4.90
2009,01,30,12,45,5.00
2009,01,30,12,46,5.00
2009,01,30,12,47,5.00
2009,01,30,12,48,5.00
2009,01,30,12,49,5.00
2009,01,30,12,50,5.10
2009,01,30,12,51,5.10
2009,01,30,12,52,5.10
2009,01,30,12,53,5.10
2009,01,30,12,54,5.10
2009,01,30,12,55,5.10
2009,01,30,12,56,5.20
2009,01,30,12,57,5.20
2009,01,30,12,58,5.20
2009,01,30,12,59,5.20
2009,01,30,13,00,5.20
2009,01,30,13,01,5.20
2009,01,30,13,02,5.20
2009,01,30,13,03,5.20
2009,01,30,13,04,5.20
2009,01,30,13,05,5.20
2009,01,30,13,06,5.20
2009,01,30,13,07,5.20
2009,01,30,13,08,5.20
2009,01,30,13,09,5.20
2009,01,30,13,10,5.20
2009,01,30,13,11,5.20
2009,01,30,13,12,5.20
2009,01,30,13,13,5.20
2009,01,30,13,14,5.20
2009,01,30,13,15,5.20
2009,01,30,13,16,5.20
2009,01,30,13,17,5.20
2009,01,30,13,18,5.10
2009,01,30,13,19,5.10
2009,01,30,13,20,5.10
2009,01,30,13,21,5.20
2009,01,30,13,22,5.20
2009,01,30,13,23,5.20
2009,01,30,13,24,5.20
2009,01,30,13,25,5.20
2009,01,30,13,26,5.20
2009,01,30,13,27,5.20
2009,01,30,13,28,5.20
2009,01,30,13,29,5.20
2009,01,30,13,30,5.20
2009,01,30,13,31,5.20
2009,01,30,13,32,5.20
2009,01,30,13,33,5.20
2009,01,30,13,34,5.20
2009,01,30,13,35,5.20
2009,01,30,13,36,5.20
2009,01,30,13,37,5.20
2009,01,30,13,38,5.30
2009,01,30,13,39,5.30
2009,01,30,13,40,5.40
2009,01,30,13,41,5.40
2009,01,30,13,42,5.40
2009,01,30,13,43,5.40
2009,01,30,13,44,5.40
2009,01,30,13,45,5.30
2009,01,30,13,46,5.30
2009,01,30,13,47,5.30
2009,01,30,13,48,5.30
2009,01,30,13,49,5.30
2009,01,30,13,50,5.30
2009,01,30,13,51,5.30
2009,01,30,13,52,5.30
2009,01,30,13,53,5.30
2009,01,30,13,54,5.30
2009,01,30,13,55,5.30
2009,01,30,13,56,5.30
2009,01,30,13,57,5.30
2009,01,30,13,58,5.30
2009,01,30,13,59,5.30
2009,01,30,14,00,5.30
2009,01,30,14,01,5.30
2009,01,30,14,02,5.40
2009,01,30,14,03,5.40
2009,01,30,14,04,5.40
2009,01,30,14,05,5.40
2009,01,30,14,06,5.40
2009,01,30,14,07,5.40
2009,01,30,14,08,5.50
2009,01,30,14,09,5.50
2009,01,30,14,10,5.60
2009,01,30,14,11,5.60
2009,01,30,14,12,5.60
2009,01,30,14,13,5.60
2009,01,30,14,14,5.70
2009,01,30,14,15,5.70
2009,01,30,14,16,5.70
2009,01,30,14,17,5.80
2009,01,30,14,18,5.80
2009,01,30,14,19,5.80
2009,01,30,14,20,5.90
2009,01,30,14,21,5.90
2009,01,30,14,22,5.90
2009,01,30,14,23,5.90
2009,01,30,14,24,5.90
2009,01,30,14,25,5.90
2009,01,30,14,26,5.90
2009,01,30,14,27,6.00
2009,01,30,14,28,6.00
2009,01,30,14,29,6.10
2009,01,30,14,30,6.10
2009,01,30,14,31,6.10
2009,01,30,14,32,6.10
2009,01,30,14,33,6.10
2009,01,30,14,34,6.10
2009,01,30,14,35,6.00
2009,01,30,14,36,6.00
2009,01,30,14,37,6.00
2009,01,30,14,38,6.00
2009,01,30,14,39,6.00
2009,01,30,14,40,6.10
2009,01,30,14,41,6.10
2009,01,30,14,42,6.10
2009,01,30,14,43,6.10
2009,01,30,14,44,6.10
2009,01,30,14,45,6.10
2009,01,30,14,46,6.10
2009,01,30,14,47,6.10
2009,01,30,14,48,6.10
2009,01,30,14,49,6.10
2009,01,30,14,50,6.10
2009,01,30,14,51,6.10
2009,01,30,14,52,6.10
2009,01,30,14,53,6.10
2009,01,30,14,54,6.10
2009,01,30,14,55,6.20
2009,01,30,14,56,6.20
2009,01,30,14,57,6.20
2009,01,30,14,58,6.20
2009,01,30,14,59,6.20
2009,01,30,15,00,6.20
2009,01,30,15,01,6.20
2009,01,30,15,02,6.20
2009,01,30,15,03,6.20
2009,01,30,15,04,6.20
2009,01,30,15,05,6.30
2009,01,30,15,06,6.30
2009,01,30,15,07,6.30
2009,01,30,15,08,6.30
2009,01,30,15,09,6.30
2009,01,30,15,10,6.30
2009,01,30,15,11,6.30
2009,01,30,15,12,6.30
2009,01,30,15,13,6.30
2009,01,30,15,14,6.30
2009,01,30,15,15,6.30
2009,01,30,15,16,6.30
2009,01,30,15,17,6.30
2009,01,30,15,18,6.30
2009,01,30,15,19,6.40
2009,01,30,15,20,6.40
2009,01,30,15,21,6.40
2009,01,30,15,22,6.40
2009,01,30,15,23,6.50
2009,01,30,15,24,6.50
2009,01,30,15,25,6.60
2009,01,30,15,26,6.60
2009,01,30,15,27,6.60
2009,01,30,15,28,6.60
2009,01,30,15,29,6.60
2009,01,30,15,30,6.60
2009,01,30,15,31,6.60
2009,01,30,15,32,6.60
2009,01,30,15,33,6.70
2009,01,30,15,34,6.80
2009,01,30,15,35,6.80
2009,01,30,15,36,6.90
2009,01,30,15,37,7.00
2009,01,30,15,38,7.00
2009,01,30,15,39,7.20
2009,01,30,15,40,7.40
2009,01,30,15,41,7.60
2009,01,30,15,42,7.80
2009,01,30,15,43,7.90
2009,01,30,15,44,8.00
2009,01,30,15,45,8.00
2009,01,30,15,46,7.90
2009,01,30,15,47,7.90
2009,01,30,15,48,7.80
2009,01,30,15,49,7.60
2009,01,30,15,50,7.70
2009,01,30,15,51,7.80
2009,01,30,15,52,7.80
2009,01,30,15,53,7.80
2009,01,30,15,54,7.80
2009,01,30,15,55,7.80
2009,01,30,15,56,7.80
2009,01,30,15,57,7.80
2009,01,30,15,58,7.90
2009,01,30,15,59,8.00
2009,01,30,16,00,8.10
2009,01,30,16,01,8.20
2009,01,30,16,02,8.20
2009,01,30,16,03,8.30
2009,01,30,16,04,8.30
2009,01,30,16,05,8.30
2009,01,30,16,06,8.30
2009,01,30,16,07,8.30
2009,01,30,16,08,8.30
2009,01,30,16,09,8.40
2009,01,30,16,10,8.30
2009,01,30,16,11,8.30
2009,01,30,16,12,8.30
2009,01,30,16,13,8.30
2009,01,30,16,14,8.20
2009,01,30,16,15,8.20
2009,01,30,16,16,8.20
2009,01,30,16,17,8.20
2009,01,30,16,18,8.20
2009,01,30,16,19,8.20
2009,01,30,16,20,8.20
2009,01,30,16,21,8.30
2009,01,30,16,22,8.30
2009,01,30,16,23,8.30
2009,01,30,16,24,8.30
2009,01,30,16,25,8.30
2009,01,30,16,26,8.30
2009,01,30,16,27,8.30
2009,01,30,16,28,8.20
2009,01,30,16,29,8.20
2009,01,30,16,30,8.10
2009,01,30,16,31,8.10
2009,01,30,16,32,8.10
2009,01,30,16,33,8.00
2009,01,30,16,34,8.00
2009,01,30,16,35,7.90
2009,01,30,16,36,7.90
2009,01,30,16,37,7.90
2009,01,30,16,38,7.90
2009,01,30,16,39,7.90
2009,01,30,16,40,7.90
2009,01,30,16,41,7.90
2009,01,30,16,42,7.90
2009,01,30,16,43,7.90
2009,01,30,16,44,7.90
2009,01,30,16,45,8.00
2009,01,30,16,46,8.00
2009,01,30,16,47,8.00
2009,01,30,16,48,8.00
2009,01,30,16,49,7.90
2009,01,30,16,50,7.90
2009,01,30,16,51,7.90
2009,01,30,16,52,7.90
2009,01,30,16,53,7.90
2009,01,30,16,54,8.00
2009,01,30,16,55,7.90
2009,01,30,16,56,7.90
2009,01,30,16,57,7.80
2009,01,30,16,58,7.80
2009,01,30,16,59,7.80
2009,01,30,17,00,7.70
2009,01,30,17,01,7.70
2009,01,30,17,02,7.70
2009,01,30,17,03,7.60
2009,01,30,17,04,7.60
2009,01,30,17,05,7.60
2009,01,30,17,06,7.50
2009,01,30,17,07,7.50
2009,01,30,17,08,7.50
2009,01,30,17,09,7.40
2009,01,30,17,10,7.40
2009,01,30,17,11,7.40
2009,01,30,17,12,7.30
2009,01,30,17,13,7.30
2009,01,30,17,14,7.30
2009,01,30,17,15,7.30
2009,01,30,17,16,7.20
2009,01,30,17,17,7.20
2009,01,30,17,18,7.20
2009,01,30,17,19,7.20
2009,01,30,17,20,7.20
2009,01,30,17,21,7.20
2009,01,30,17,22,7.20
2009,01,30,17,23,7.20
2009,01,30,17,24,7.20
2009,01,30,17,25,7.10
2009,01,30,17,26,7.10
2009,01,30,17,27,7.00
2009,01,30,17,28,7.00
2009,01,30,17,29,6.90
2009,01,30,17,30,6.90
2009,01,30,17,31,6.90
2009,01,30,17,32,6.80
2009,01,30,17,33,6.80
2009,01,30,17,34,6.80
2009,01,30,17,35,6.80
2009,01,30,17,36,6.80
2009,01,30,17,37,6.80
2009,01,30,17,38,6.70
2009,01,30,17,39,6.70
2009,01,30,17,40,6.70
2009,01,30,17,41,6.70
2009,01,30,17,42,6.70
2009,01,30,17,43,6.70
2009,01,30,17,44,6.70
2009,01,30,17,45,6.70
2009,01,30,17,46,6.70
2009,01,30,17,47,6.70
2009,01,30,17,48,6.70
2009,01,30,17,49,6.70
2009,01,30,17,50,6.70
2009,01,30,17,51,6.70
2009,01,30,17,52,6.70
2009,01,30,17,53,6.70
2009,01,30,17,54,6.70
2009,01,30,17,55,6.70
2009,01,30,17,56,6.70
2009,01,30,17,57,6.70
2009,01,30,17,58,6.70
2009,01,30,17,59,6.70
2009,01,30,18,00,6.70
2009,01,30,18,01,6.70
2009,01,30,18,02,6.70
2009,01,30,18,03,6.70
2009,01,30,18,04,6.80
2009,01,30,18,05,6.80
2009,01,30,18,06,6.80